• In Österreich
  • Länderverzeichnis
  • Für 7 Tage
  • Wassertemperatur
  • Satellitenkarten
  • Wetterkarte
  • News
  • Widgets
  • user-avatar
    Anmelden

    Stündliche Wetter Ouahigouya

    Heute, 21 Februar, Mittwoch

    Zeit Temperatur Niederschläge Wind Luftdruck Luftfeuchtigkeit
    00:00 +32°C° 0 mm 2 m/S 726 mmHg 23%
    01:00 +31°C° 0 mm 2 m/S 726 mmHg 23%
    02:00 +30°C° 0 mm 2 m/S 726 mmHg 22%
    03:00 +29°C° 0 mm 2 m/S 725 mmHg 22%
    04:00 +29°C° 0 mm 2 m/S 725 mmHg 20%
    05:00 +28°C° 0 mm 2 m/S 725 mmHg 18%
    06:00 +28°C° 0 mm 2 m/S 725 mmHg 17%
    07:00 +30°C° 0 mm 3 m/S 726 mmHg 15%
    08:00 +33°C° 0 mm 3 m/S 727 mmHg 13%
    09:00 +35°C° 0 mm 3 m/S 727 mmHg 11%
    10:00 +36°C° 0 mm 3 m/S 727 mmHg 10%
    11:00 +38°C° 0 mm 2 m/S 727 mmHg 9%
    12:00 +40°C° 0 mm 2 m/S 727 mmHg 9%
    13:00 +40°C° 0 mm 2 m/S 726 mmHg 9%
    14:00 +41°C° 0 mm 2 m/S 725 mmHg 9%
    15:00 +41°C° 0 mm 2 m/S 724 mmHg 9%
    16:00 +40°C° 0 mm 2 m/S 724 mmHg 10%
    17:00 +39°C° 0 mm 2 m/S 724 mmHg 10%
    18:00 +38°C° 0 mm 3 m/S 724 mmHg 11%
    19:00 +37°C° 0 mm 3 m/S 724 mmHg 11%
    20:00 +35°C° 0 mm 3 m/S 725 mmHg 12%
    21:00 +34°C° 0 mm 3 m/S 725 mmHg 13%
    22:00 +33°C° 0 mm 3 m/S 725 mmHg 13%
    23:00 +31°C° 0 mm 3 m/S 725 mmHg 14%

    Morgen, 22 Februar, Donnerstag

    Zeit Temperatur Niederschläge Wind Luftdruck Luftfeuchtigkeit
    00:00 +30°C° 0 mm 3 m/S 725 mmHg 15%
    01:00 +29°C° 0 mm 2 m/S 725 mmHg 16%
    02:00 +28°C° 0 mm 2 m/S 724 mmHg 17%
    03:00 +27°C° 0 mm 1 m/S 724 mmHg 18%
    04:00 +27°C° 0 mm 1 m/S 724 mmHg 19%
    05:00 +27°C° 0 mm 2 m/S 724 mmHg 19%
    06:00 +27°C° 0 mm 2 m/S 724 mmHg 19%
    07:00 +29°C° 0 mm 2 m/S 725 mmHg 18%
    08:00 +31°C° 0 mm 2 m/S 726 mmHg 17%
    09:00 +34°C° 0 mm 2 m/S 727 mmHg 15%
    10:00 +36°C° 0 mm 2 m/S 727 mmHg 14%
    11:00 +37°C° 0 mm 2 m/S 726 mmHg 13%
    12:00 +39°C° 0 mm 1 m/S 726 mmHg 11%
    13:00 +40°C° 0 mm 2 m/S 726 mmHg 11%
    14:00 +40°C° 0 mm 2 m/S 725 mmHg 10%
    15:00 +41°C° 0 mm 2 m/S 724 mmHg 10%
    16:00 +40°C° 0 mm 2 m/S 724 mmHg 10%
    17:00 +39°C° 0 mm 2 m/S 724 mmHg 11%
    18:00 +38°C° 0 mm 2 m/S 724 mmHg 12%
    19:00 +36°C° 0 mm 3 m/S 724 mmHg 13%
    20:00 +35°C° 0 mm 3 m/S 725 mmHg 14%
    21:00 +34°C° 0 mm 3 m/S 725 mmHg 15%
    22:00 +33°C° 0 mm 3 m/S 725 mmHg 17%
    23:00 +31°C° 0 mm 3 m/S 725 mmHg 19%

    übermorgen, 23 Februar, Freitag

    Zeit Temperatur Niederschläge Wind Luftdruck Luftfeuchtigkeit
    00:00 +30°C° 0 mm 3 m/S 725 mmHg 21%
    01:00 +29°C° 0 mm 3 m/S 725 mmHg 22%
    02:00 +28°C° 0 mm 3 m/S 725 mmHg 24%
    03:00 +27°C° 0 mm 2 m/S 724 mmHg 26%
    04:00 +27°C° 0 mm 2 m/S 725 mmHg 26%
    05:00 +27°C° 0 mm 2 m/S 725 mmHg 26%
    06:00 +27°C° 0 mm 3 m/S 725 mmHg 26%
    07:00 +29°C° 0 mm 3 m/S 726 mmHg 24%
    08:00 +32°C° 0 mm 4 m/S 727 mmHg 21%
    09:00 +34°C° 0 mm 4 m/S 727 mmHg 18%
    10:00 +36°C° 0 mm 4 m/S 727 mmHg 17%
    11:00 +37°C° 0 mm 4 m/S 727 mmHg 16%
    12:00 +40°C° 0 mm 4 m/S 726 mmHg 14%
    13:00 +41°C° 0 mm 4 m/S 725 mmHg 15%
    14:00 +40°C° 0 mm 3 m/S 725 mmHg 15%
    15:00 +42°C° 0 mm 3 m/S 724 mmHg 15%
    16:00 +40°C° 0 mm 3 m/S 724 mmHg 17%
    17:00 +39°C° 0 mm 3 m/S 724 mmHg 19%
    18:00 +38°C° 0 mm 3 m/S 724 mmHg 21%
    19:00 +37°C° 0 mm 3 m/S 725 mmHg 24%
    20:00 +36°C° 0 mm 3 m/S 725 mmHg 27%
    21:00 +35°C° 0 mm 3 m/S 726 mmHg 30%
    22:00 +35°C° 0,1 mm 3 m/S 726 mmHg 31%
    23:00 +34°C° 0,1 mm 3 m/S 726 mmHg 33%

    24 Februar, Samstag

    Zeit Temperatur Niederschläge Wind Luftdruck Luftfeuchtigkeit
    00:00 +34°C° 0,1 mm 3 m/S 726 mmHg 35%
    01:00 +33°C° 0 mm 3 m/S 725 mmHg 36%
    02:00 +33°C° 0 mm 3 m/S 725 mmHg 38%
    03:00 +31°C° 0 mm 3 m/S 725 mmHg 40%
    04:00 +31°C° 0,2 mm 3 m/S 725 mmHg 42%
    05:00 +30°C° 0,2 mm 2 m/S 725 mmHg 43%
    06:00 +29°C° 0,2 mm 2 m/S 725 mmHg 45%
    07:00 +31°C° 0,4 mm 2 m/S 726 mmHg 42%
    08:00 +32°C° 0,4 mm 2 m/S 727 mmHg 39%
    09:00 +35°C° 0,4 mm 3 m/S 728 mmHg 36%
    10:00 +36°C° 0,1 mm 4 m/S 728 mmHg 33%
    11:00 +37°C° 0,1 mm 5 m/S 728 mmHg 30%
    12:00 +40°C° 0,1 mm 6 m/S 727 mmHg 27%
    13:00 +40°C° 0 mm 6 m/S 727 mmHg 26%
    14:00 +40°C° 0 mm 5 m/S 726 mmHg 24%
    15:00 +40°C° 0 mm 5 m/S 725 mmHg 23%
    16:00 +40°C° 0 mm 4 m/S 726 mmHg 22%
    17:00 +38°C° 0 mm 3 m/S 726 mmHg 22%
    18:00 +38°C° 0 mm 3 m/S 726 mmHg 22%
    19:00 +37°C° 0,1 mm 2 m/S 726 mmHg 23%
    20:00 +35°C° 0,1 mm 2 m/S 727 mmHg 24%
    21:00 +34°C° 0,1 mm 2 m/S 728 mmHg 25%
    22:00 +32°C° 0 mm 2 m/S 728 mmHg 26%
    23:00 +31°C° 0 mm 2 m/S 728 mmHg 28%

    25 Februar, Sonntag

    Zeit Temperatur Niederschläge Wind Luftdruck Luftfeuchtigkeit
    00:00 +30°C° 0 mm 2 m/S 728 mmHg 29%
    01:00 +30°C° 0 mm 2 m/S 728 mmHg 28%
    02:00 +30°C° 0 mm 2 m/S 727 mmHg 27%
    03:00 +30°C° 0 mm 2 m/S 727 mmHg 26%
    04:00 +29°C° 0 mm 3 m/S 727 mmHg 25%
    05:00 +29°C° 0 mm 3 m/S 728 mmHg 25%
    06:00 +28°C° 0 mm 4 m/S 728 mmHg 25%
    07:00 +29°C° 0 mm 5 m/S 729 mmHg 24%
    08:00 +32°C° 0 mm 5 m/S 729 mmHg 23%
    09:00 +33°C° 0 mm 6 m/S 730 mmHg 21%
    10:00 +35°C° 0 mm 6 m/S 730 mmHg 19%
    11:00 +36°C° 0 mm 6 m/S 729 mmHg 17%
    12:00 +39°C° 0 mm 5 m/S 729 mmHg 15%
    13:00 +40°C° 0 mm 4 m/S 728 mmHg 14%
    14:00 +40°C° 0 mm 4 m/S 727 mmHg 14%
    15:00 +40°C° 0 mm 3 m/S 727 mmHg 14%
    16:00 +40°C° 0 mm 3 m/S 727 mmHg 15%
    17:00 +39°C° 0 mm 2 m/S 727 mmHg 16%
    18:00 +38°C° 0 mm 2 m/S 727 mmHg 16%
    19:00 +37°C° 0 mm 2 m/S 727 mmHg 17%
    20:00 +36°C° 0 mm 2 m/S 728 mmHg 19%
    21:00 +35°C° 0 mm 2 m/S 728 mmHg 20%
    22:00 +34°C° 0 mm 2 m/S 728 mmHg 20%
    23:00 +34°C° 0 mm 3 m/S 728 mmHg 21%

    26 Februar, Montag

    Zeit Temperatur Niederschläge Wind Luftdruck Luftfeuchtigkeit
    00:00 +34°C° 0 mm 3 m/S 728 mmHg 21%
    01:00 +33°C° 0 mm 3 m/S 728 mmHg 22%
    02:00 +33°C° 0 mm 3 m/S 727 mmHg 22%
    03:00 +32°C° 0 mm 4 m/S 727 mmHg 23%
    04:00 +32°C° 0 mm 4 m/S 727 mmHg 23%
    05:00 +32°C° 0 mm 4 m/S 727 mmHg 24%
    06:00 +30°C° 0 mm 4 m/S 728 mmHg 25%
    07:00 +33°C° 0 mm 5 m/S 728 mmHg 23%
    08:00 +34°C° 0 mm 5 m/S 729 mmHg 22%
    09:00 +35°C° 0 mm 6 m/S 729 mmHg 21%
    10:00 +38°C° 0 mm 6 m/S 729 mmHg 19%
    11:00 +40°C° 0 mm 6 m/S 729 mmHg 18%
    12:00 +41°C° 0 mm 6 m/S 729 mmHg 16%
    13:00 +42°C° 0 mm 5 m/S 728 mmHg 16%
    14:00 +42°C° 0 mm 4 m/S 727 mmHg 16%
    15:00 +43°C° 0 mm 3 m/S 727 mmHg 16%
    16:00 +42°C° 0 mm 3 m/S 727 mmHg 16%
    17:00 +40°C° 0 mm 2 m/S 727 mmHg 17%
    18:00 +39°C° 0 mm 2 m/S 727 mmHg 18%
    19:00 +39°C° 0 mm 2 m/S 727 mmHg 19%
    20:00 +38°C° 0 mm 2 m/S 728 mmHg 21%
    21:00 +37°C° 0 mm 2 m/S 728 mmHg 22%
    22:00 +36°C° 0 mm 3 m/S 728 mmHg 24%
    23:00 +35°C° 0 mm 3 m/S 728 mmHg 27%
    Mehr zeigen